FW3585 Weather Reports


time (UTC)temp
C
wind
direction
speed
KPH
gust
KPH
rain 1hr
cm
rain 24hr
cm
rain mn
cm
humidity
%
barometer
mb
20260508023036 10 153 0.0 0.0 0.00 0.20 0.18 95 1012.9
20260508021527 9 153 0.0 0.0 0.00 0.20 0.18 95 1012.6
20260508020026 10 153 0.0 0.0 0.00 0.20 0.18 94 1012.3
20260508014525 10 153 0.0 0.0 0.00 0.20 0.18 94 1012.1
20260508013022 10 153 0.0 0.0 0.00 0.20 0.18 93 1012.0
20260508011620 10 153 0.0 0.0 0.00 0.20 0.18 92 1011.7
20260508010022 11 153 0.0 1.6 0.00 0.20 0.18 92 1011.6
20260508004518 11 153 0.0 3.2 0.00 0.20 0.18 92 1011.5
20260508003018 11 153 0.0 1.6 0.00 0.20 0.18 91 1011.7
20260508001536 12 153 0.0 3.2 0.00 0.20 0.18 91 1011.5
20260508000017 12 153 0.0 3.2 0.00 0.20 0.18 90 1011.3
20260507234518 12 153 3.2 8.0 0.00 0.20 0.18 89 1011.1
20260507233023 12 150 0.0 3.2 0.00 0.20 0.18 89 1010.9
20260507231516 12 150 3.2 8.0 0.00 0.20 0.18 88 1010.7
20260507230025 12 161 3.2 8.0 0.00 0.20 0.18 88 1010.8
20260507224526 12 173 1.6 6.4 0.00 0.20 0.18 89 1010.6
20260507223015 12 168 1.6 11.3 0.00 0.20 0.18 89 1010.7
20260507221522 12 186 1.6 8.0 0.03 0.20 0.18 89 1010.6
20260507220015 12 173 1.6 8.0 0.03 0.20 0.18 89 1010.8
20260507214513 12 152 1.6 8.0 0.03 0.20 0.18 89 1010.8
20260507213015 12 152 0.0 8.0 0.03 0.20 0.18 89 1010.7
20260507211527 12 153 3.2 9.7 0.00 0.18 0.15 89 1010.5
20260507210014 12 142 1.6 8.0 0.00 0.18 0.15 92 1010.2
20260507204511 11 147 8.0 14.5 0.00 0.18 0.15 93 1010.2
20260507203010 11 141 6.4 12.9 0.00 0.18 0.15 94 1010.2
20260507201516 11 170 3.2 6.4 0.00 0.18 0.15 94 1011.1
20260507200009 11 109 3.2 11.3 0.00 0.18 0.15 94 1010.9
20260507194509 10 92 6.4 12.9 0.03 0.18 0.15 93 1010.8
20260507193008 11 79 4.8 16.1 0.03 0.18 0.15 92 1011.2
20260507191507 11 85 1.6 4.8 0.03 0.18 0.15 92 1011.2
20260507190006 11 85 1.6 4.8 0.03 0.18 0.15 92 1011.3
20260507184505 11 90 1.6 4.8 0.00 0.15 0.13 92 1011.1
20260507183005 11 78 0.0 17.7 0.00 0.15 0.13 91 1011.6
20260507181504 11 84 1.6 12.9 0.00 0.15 0.13 90 1011.7
20260507180004 11 101 6.4 19.3 0.00 0.15 0.13 89 1011.5
20260507174507 11 36 4.8 16.1 0.00 0.20 0.13 89 1011.2
20260507173002 11 88 6.4 24.1 0.00 0.20 0.13 90 1011.2
20260507171604 11 81 9.7 27.4 0.00 0.20 0.13 90 1011.2
20260507170058 10 43 14.5 19.3 0.00 0.20 0.13 90 1011.6
20260507164555 11 121 4.8 12.9 0.00 0.20 0.13 92 1011.7
20260507163056 11 79 8.0 14.5 0.00 0.20 0.13 93 1011.7
20260507161555 11 100 4.8 12.9 0.00 0.20 0.13 94 1011.7
20260507160052 11 151 4.8 14.5 0.00 0.20 0.13 93 1012.0
20260507154549 11 74 3.2 19.3 0.00 0.23 0.13 93 1012.0
20260507153101 11 53 6.4 12.9 0.00 0.23 0.13 93 1011.8
20260507151545 11 86 4.8 14.5 0.03 0.23 0.13 93 1011.7
20260507150045 11 81 9.7 17.7 0.03 0.23 0.13 92 1011.6
20260507144545 11 55 8.0 17.7 0.03 0.36 0.13 93 1011.5
20260507143053 11 17 8.0 16.1 0.03 0.36 0.13 93 1011.6
20260507141540 11 42 6.4 19.3 0.00 0.33 0.10 93 1011.5
20260507140039 11 62 4.8 27.4 0.03 0.33 0.10 93 1011.5
20260507134535 12 55 14.5 24.1 0.03 0.33 0.10 93 1011.6
20260507133033 12 66 9.7 17.7 0.03 0.33 0.10 93 1012.2
20260507131538 12 58 9.7 22.5 0.03 0.33 0.10 93 1011.9
20260507130023 13 45 4.8 14.5 0.00 0.30 0.08 95 1011.6
20260507124521 14 76 3.2 19.3 0.00 0.33 0.08 95 1011.6
20260507123022 15 84 6.4 20.9 0.00 0.33 0.08 94 1010.8
20260507121514 16 72 4.8 17.7 0.00 0.33 0.08 95 1010.6
20260507120011 16 73 6.4 12.9 0.00 0.33 0.08 96 1010.8
20260507114509 16 65 3.2 6.4 0.00 0.33 0.08 97 1010.8
20260507113008 16 42 1.6 3.2 0.00 0.33 0.08 97 1010.4
20260507111509 16 40 0.0 0.0 0.00 0.33 0.08 97 1010.9
20260507110006 16 40 0.0 3.2 0.00 0.33 0.08 97 1010.5
20260507104505 16 40 0.0 4.8 0.00 0.33 0.08 97 1010.3
20260507103003 16 40 1.6 4.8 0.00 0.33 0.08 97 1010.0
20260507101502 16 42 1.6 4.8 0.00 0.33 0.08 97 1009.8
20260507100002 16 42 0.0 3.2 0.00 0.33 0.08 97 1009.9
20260507094501 16 137 1.6 6.4 0.00 0.33 0.08 97 1009.8
20260507093003 16 350 0.0 1.6 0.00 0.33 0.08 97 1009.4
20260507091559 16 350 1.6 4.8 0.00 0.33 0.08 96 1009.8
20260507084606 16 349 1.6 8.0 0.00 0.33 0.08 96 1010.1
20260507083059 16 336 6.4 14.5 0.00 0.33 0.08 96 1010.1
20260507081559 16 232 1.6 8.0 0.00 0.33 0.08 96 1010.0
20260507080057 16 13 0.0 3.2 0.00 0.33 0.08 96 1010.1
20260507074603 16 14 0.0 1.6 0.00 0.33 0.08 96 1010.5
20260507073055 16 14 0.0 3.2 0.00 0.33 0.08 96 1009.6
20260507071604 16 11 1.6 8.0 0.00 0.33 0.08 96 1009.7
20260507070105 16 238 3.2 6.4 0.00 0.33 0.08 95 1009.7
20260507064557 16 178 0.0 4.8 0.03 0.33 0.08 95 1009.6
20260507063051 16 178 0.0 4.8 0.03 0.33 0.08 94 1009.6
20260507061551 16 169 0.0 8.0 0.03 0.33 0.08 94 1009.9
20260507060049 16 182 3.2 11.3 0.03 0.33 0.08 94 1009.9
20260507054607 16 154 3.2 9.7 0.03 0.30 0.05 93 1010.3
20260507053056 16 201 8.0 16.1 0.03 0.30 0.05 93 1010.9
20260507051550 17 173 1.6 4.8 0.03 0.30 0.05 93 1010.5
20260507050049 17 168 1.6 8.0 0.05 0.30 0.05 93 1010.4
20260507044551 17 174 3.2 9.7 0.03 0.28 0.03 93 1010.3
20260507043040 17 193 3.2 11.3 0.05 0.28 0.03 94 1010.3
20260507041540 17 162 6.4 17.7 0.05 0.28 0.03 94 1010.8
20260507040039 18 212 9.7 20.9 0.03 0.25 0.00 93 1011.4
20260507034532 18 229 6.4 14.5 0.03 0.25 0.25 93 1011.7
20260507033032 18 246 3.2 12.9 0.00 0.23 0.23 91 1012.0
20260507031532 18 232 3.2 17.7 0.00 0.23 0.23 90 1011.1
20260507030032 18 244 3.2 14.5 0.00 0.23 0.23 89 1011.5
20260507024534 18 213 8.0 20.9 0.00 0.23 0.23 88 1011.4